Weather History for Whyalla, South Australia

Change the Weather History Date:

Tuesday, August 6, 2013

  Actual Average Record
Temperature  
Mean Temperature 58 °F -  
Max Temperature 66 °F - - ()
Min Temperature 51 °F - - ()
Degree Days  
Heating Degree Days 6    
Growing Degree Days 8 (Base 50)    
Moisture  
Dew Point 49 °F    
Average Humidity 73    
Maximum Humidity 88    
Minimum Humidity 55    
Precipitation  
Precipitation 0.00 in - - ()
Sea Level Pressure  
Sea Level Pressure 29.91 in    
Wind  
Wind Speed 6 mph ()    
Max Wind Speed 12 mph    
Max Gust Speed -    
Visibility 6.1 miles    
Events      
T = Trace of Precipitation, MM = Missing Value Source: Averaged Metar Reports

Daily Weather History Graph

Daily Weather History Graph

Search for Another Location

Airport:

Trip Planner

Search our weather history database for the weather conditions in past years. The results will help you decide how hot, cold, wet, or windy it might be!

Date:

Astronomy

Aug. 06, 2013 Rise Set
Actual Time 7:06 AM CST 5:45 PM CST
Civil Twilight 6:40 AM CST 6:11 PM CST
Nautical Twilight 6:11 AM CST 6:40 PM CST
Astronomical Twilight 5:42 AM CST 7:09 PM CST
Moon 6:13 AM CST (8/6) 5:16 PM CST (8/6)
Length of Visible Light 11h 30m
Length of Day
10h 38m
Waning Crescent, 1% of the Moon is Illuminated
Aug 6
Waning Crescent
Aug 7
New
Aug 14
First Quarter
Aug 21
Full
Aug 28
Last Quarter

Hourly Weather History & Observations

Time (CST) Temp. Dew Point Humidity Pressure Visibility Wind Dir Wind Speed Gust Speed Precip Events Conditions
12:30 AM 59.0 °F 42.8 °F 55% 29.89 in 6.2 mi WNW 8.1 mph - N/A   Mostly Cloudy
1:30 AM 55.4 °F 42.8 °F 63% 29.89 in 6.2 mi WNW 9.2 mph - N/A   Unknown
2:30 AM 55.4 °F 44.6 °F 67% 29.89 in 6.2 mi WNW 6.9 mph - N/A   Scattered Clouds
3:30 AM 53.6 °F 44.6 °F 72% 29.89 in 6.2 mi NNW 6.9 mph - N/A   Scattered Clouds
4:30 AM 53.6 °F 46.4 °F 77% 29.89 in 6.2 mi NNW 9.2 mph - N/A   Scattered Clouds
5:30 AM 53.6 °F 48.2 °F 82% 29.89 in 6.2 mi NNW 4.6 mph - N/A   Mostly Cloudy
6:30 AM 51.8 °F 46.4 °F 82% 29.92 in 6.2 mi North 8.1 mph - N/A   Scattered Clouds
7:30 AM 51.8 °F 48.2 °F 88% 29.92 in 6.2 mi NNW 8.1 mph - N/A   Unknown
8:30 AM 55.4 °F 50.0 °F 82% 29.95 in 6.2 mi NW 9.2 mph - N/A   Mostly Cloudy
9:30 AM 60.8 °F 53.6 °F 77% 29.95 in 6.2 mi WNW 8.1 mph - N/A   Scattered Clouds
10:30 AM 62.6 °F 53.6 °F 72% 29.95 in 6.2 mi NW 5.8 mph - N/A   Overcast
11:30 AM 66.2 °F 51.8 °F 60% 29.92 in 6.2 mi SSW 5.8 mph - N/A   Mostly Cloudy
12:30 PM 64.4 °F 48.2 °F 56% 29.92 in 6.2 mi SSE 11.5 mph - N/A   Mostly Cloudy
1:30 PM 62.6 °F 48.2 °F 59% 29.89 in 6.2 mi SSE 9.2 mph - N/A   Overcast
2:30 PM 62.6 °F 50.0 °F 63% 29.89 in 6.2 mi ESE 6.9 mph - N/A   Overcast
3:30 PM 62.6 °F 48.2 °F 59% 29.89 in 6.2 mi East 4.6 mph - N/A   Mostly Cloudy
4:30 PM 60.8 °F 50.0 °F 68% 29.92 in 6.2 mi NE 4.6 mph - N/A   Overcast
5:30 PM 59.0 °F 50.0 °F 72% 29.92 in 5.0 mi NE 4.6 mph - N/A   Overcast
6:30 PM 59.0 °F 50.0 °F 72% 29.92 in 6.2 mi NNE 3.5 mph - N/A   Overcast
7:30 PM 57.2 °F 51.8 °F 82% 29.92 in 6.2 mi Calm Calm - N/A   Overcast
8:30 PM 57.2 °F 51.8 °F 82% 29.95 in 6.2 mi Calm Calm - N/A   Mostly Cloudy
9:30 PM 55.4 °F 51.8 °F 88% 29.92 in 6.2 mi Calm Calm - N/A   Overcast
10:30 PM 55.4 °F 51.8 °F 88% 29.92 in 6.2 mi Calm Calm - N/A   Overcast
11:30 PM 55.4 °F 51.8 °F 88% 29.92 in 6.2 mi NNE 2.3 mph - N/A   Overcast